ダルカントン彗星

C/1999 F2 ( Dalcanton )

English version
Home page
Updated on June 11, 2000

---------------------------------------------------------------------

・ プロフィール

発見日 1999年 3月20日
発見光度 15.5等
発見者 Sloan Digital Sky Survey

・ 写真集

・ 軌道要素

   The following improved orbital elements by Kenji Muraoka, are
  from 104 observations 1998 June 18 to 2000 May 5, perturbations
  by 9 Planets, Moon and 5 minor planets were taken into account.
   The mean residual is +/- 0.72 arc seconds.

      Epoch  =  1998 Aug. 15.0  TT       JDT = 2451040.5
          T  =  1998 Aug. 23.98570       +/- 0.00309 (m.e.) TT
       Peri. =  352.39315                +/- 0.00025
       Node  =  210.29598                +/- 0.00028   (2000.0)
       Incl. =   56.42109                +/- 0.00018
          q  =    4.7187951              +/- 0.0000168 AU
          e  =    0.9986054              +/- 0.0000185
        1/a  =   +0.0002955              +/- 0.0000039 1/AU
  orig. 1/a  =   +0.000054
  fut.  1/a  =   +0.000356

・ 星図

・ 光度変化

        m1 = 5.3 + 5 logΔ + 10.0 log r

---------------------------------------------------------------------

軌道要素は村岡健治氏の計算によるものです。
星図は StellaNavigator Ver.2.0 for Windows (アストロアーツ 編著 / アスキー出版局刊) で作成したものです。
光度グラフはComet for Windowsで作成したものです。

---------------------------------------------------------------------

Copyright(C) Seiichi Yoshida (comet@aerith.net). All rights reserved.